Theta_e
329 332 331 330 331 331 331 333 337 338 341 344 345 350 346 344 345 344 344 348 348 349 349 352 353 354 354 355 355 355 354 353 352 352 352 351 351 350 350 349 349 349 347 346
328 329 330 330 331 330 330 331 333 339 342 344 350 351 349 346 342 344 344 346 347 348 349 352 352 353 354 355 355 354 353 353 351 354 351 347 345 347 348 345 343 344 345 343
327 328 330 330 330 331 332 332 332 337 345 345 350 352 355 349 348 345 347 346 349 349 350 350 351 352 353 354 355 352 349 350 352 347 346 345 341 340 341 342 341 342 342 337
330 329 329 330 331 332 333 333 333 335 347 343 347 342 356 353 352 349 346 349 349 350 351 350 349 350 351 353 355 352 353 345 340 336 339 339 333 337 338 338 338 334 339 332
330 329 330 330 331 332 334 337 338 340 346 345 351 346 341 351 353 351 349 347 347 349 350 349 346 348 350 354 356 353 333 333 333 328 326 332 337 335 336 336 335 331 334 330
331 330 331 332 331 331 338 341 341 341 339 341 337 342 335 341 349 348 348 348 349 348 349 350 348 349 353 352 351 339 332 332 330 326 326 325 326 326 332 334 335 334 335 336
331 330 331 331 332 333 335 335 335 335 335 335 337 338 335 336 345 345 346 349 349 348 348 349 350 352 351 351 345 338 332 332 330 328 326 326 325 327 333 334 332 332 333 333
332 332 331 332 332 332 332 332 331 333 332 331 339 334 336 342 341 340 344 347 349 348 346 348 351 350 350 348 341 333 330 331 328 326 327 327 326 332 333 334 331 332 332 332
331 331 331 331 332 333 332 332 332 332 331 331 332 336 338 341 342 341 345 347 349 346 346 348 349 349 348 342 335 327 327 326 323 329 328 332 335 335 332 328 329 332 330 331
331 332 331 331 331 331 334 333 332 332 334 334 332 331 333 336 337 342 343 346 350 345 345 347 347 347 344 341 335 326 322 324 329 330 330 333 333 334 333 331 329 329 328 327
330 331 333 332 332 332 333 333 334 334 334 334 334 333 335 334 335 337 343 346 349 345 343 345 347 347 341 340 337 323 323 327 330 331 332 330 332 333 331 329 332 333 331 327
330 331 332 332 333 333 333 333 334 335 339 335 334 332 335 334 335 336 338 345 346 347 340 339 345 346 340 339 335 333 334 335 335 335 333 332 332 330 329 329 331 331 331 329
331 330 331 333 334 333 334 334 334 335 335 336 334 334 337 336 338 339 338 343 346 348 343 339 342 343 340 339 336 334 334 332 332 333 332 333 332 332 331 330 329 329 329 329
331 331 332 331 332 332 334 334 335 334 336 336 336 335 334 337 337 336 339 342 344 346 344 341 340 340 340 339 336 334 333 331 332 332 331 332 333 332 331 328 326 329 331 331
332 335 333 332 331 332 332 334 334 335 335 336 334 335 336 336 335 336 335 336 342 343 343 343 341 340 341 339 337 328 333 332 331 332 332 332 333 333 329 329 331 332 332 330
335 337 336 333 332 332 332 332 334 334 334 336 335 334 331 330 330 330 331 334 338 341 342 343 342 341 341 339 335 329 332 331 332 333 332 332 333 334 334 332 333 331 330 329
337 338 339 335 334 334 335 335 335 334 335 334 333 332 331 331 331 331 334 335 336 338 341 341 341 341 340 337 331 331 331 330 333 330 332 333 334 334 333 331 331 330 331 330
339 340 337 336 338 338 335 335 334 334 334 333 332 331 330 330 332 335 334 335 335 336 339 340 340 340 339 333 330 331 330 333 332 331 333 333 334 334 333 331 330 330 330 329
336 339 336 338 338 335 335 334 334 334 334 334 333 330 329 331 335 335 335 335 337 337 339 340 340 339 335 332 330 331 332 332 332 332 332 332 333 333 333 331 331 331 329 327
334 337 337 336 335 335 334 334 333 333 335 331 330 330 330 334 334 337 336 335 337 338 339 340 338 335 333 328 331 332 332 333 332 332 332 331 332 333 332 331 330 329 328 326
336 337 335 334 335 333 335 332 332 334 334 331 329 329 331 336 334 338 337 335 336 337 337 338 336 333 331 332 332 332 333 333 333 332 331 330 332 333 331 330 330 329 327 326
336 336 334 334 336 336 332 331 333 337 332 331 331 331 332 334 338 336 337 337 336 336 335 335 334 333 333 334 332 333 335 329 333 332 332 330 326 331 329 330 329 328 323 320
334 335 336 335 336 334 331 332 331 331 332 332 334 334 334 336 336 336 337 337 336 335 335 334 334 336 337 338 336 337 337 337 336 335 326 327 323 326 333 328 325 327 325 324
330 329 331 333 334 331 328 329 330 331 332 332 332 332 334 337 335 335 336 336 336 335 335 335 334 334 335 335 333 334 337 338 333 327 324 325 326 332 332 328 328 327 325 325
329 329 330 331 331 328 329 328 327 328 329 330 330 332 334 335 333 332 332 332 331 332 330 324 325 332 333 332 334 334 331 329 326 324 324 331 330 330 329 327 322 325 322 321
328 329 330 329 325 326 327 323 325 327 329 329 332 333 332 332 330 328 329 330 330 331 324 327 324 329 331 331 331 327 325 324 323 326 328 329 327 327 325 326 324 321 321 321
Wind_Speed
14 12 15 17 17 11 13 16 12 10 5 10 6 12 14 16 14 14 16 14 13 13 11 11 9 9 8 7 7 6 5 5 5 5 7 8 10 11 11 14 15 15 16 16
10 17 17 12 7 11 12 12 11 6 6 11 8 11 12 14 16 15 15 16 15 14 14 12 12 10 8 6 6 5 5 5 4 6 8 8 9 9 10 13 13 12 11 14
16 19 12 12 13 15 14 15 12 13 9 11 8 10 12 14 13 15 14 15 15 16 16 15 14 12 11 9 7 7 6 6 6 5 5 6 8 10 9 9 11 13 13 16
13 12 14 16 16 14 14 10 13 15 14 12 16 10 18 17 16 17 20 18 18 17 16 16 16 13 14 11 8 6 3 2 4 7 6 8 9 9 9 9 11 14 13 18
12 15 14 14 14 10 6 8 9 12 17 7 13 9 3 16 18 20 22 22 21 20 19 18 18 16 15 13 11 7 3 4 5 8 5 6 7 7 8 8 11 11 11 13
12 8 11 8 6 6 13 13 7 8 7 10 12 12 12 10 18 19 24 24 23 22 21 21 21 19 16 14 12 7 4 4 6 6 9 12 10 9 7 8 8 9 9 8
10 14 9 19 14 11 12 15 8 9 8 10 5 7 13 2 5 13 21 27 27 25 24 24 25 22 19 16 13 8 5 6 7 7 10 11 10 10 8 10 10 10 8 8
16 13 14 14 12 12 17 15 6 7 9 6 3 7 6 2 4 13 14 23 28 26 27 27 26 23 20 17 13 9 6 7 8 9 12 12 11 6 7 8 8 6 7 8
14 12 12 14 8 10 11 10 5 1 3 8 7 6 9 8 8 10 12 17 28 26 27 28 26 23 21 18 14 11 8 9 10 9 13 10 8 6 7 8 9 7 9 7
9 11 14 8 10 4 8 11 9 9 6 9 6 6 3 5 7 8 14 19 25 26 27 27 27 24 21 18 15 12 10 11 12 11 12 8 7 6 7 7 8 8 8 9
13 12 10 10 12 15 8 11 8 5 5 7 6 3 6 2 2 4 10 18 23 29 29 29 28 25 23 19 17 14 11 13 11 12 10 9 6 6 7 7 8 9 10 10
18 11 12 16 5 6 15 18 16 10 11 6 7 8 4 4 3 3 5 13 21 28 29 28 28 26 24 22 18 15 12 11 10 9 9 8 7 7 8 9 9 11 12 13
13 11 14 12 9 5 11 11 13 16 10 7 8 3 6 4 4 5 8 13 18 24 28 29 30 30 27 23 19 16 13 11 10 10 9 9 8 8 8 9 10 11 13 15
10 15 18 16 18 14 18 15 17 16 12 11 11 13 10 5 7 8 10 13 17 23 29 30 30 31 27 23 20 17 13 11 10 10 10 10 9 9 9 10 12 13 14 16
11 12 15 20 17 14 15 18 19 20 17 15 12 7 11 8 11 12 12 11 18 23 29 34 35 32 27 23 20 16 14 12 11 12 11 11 11 11 12 13 14 14 15 15
6 9 9 15 12 15 14 17 17 18 12 9 9 11 8 9 13 16 19 16 17 23 27 29 30 29 26 24 20 16 14 13 13 13 11 11 12 12 13 13 14 15 14 14
8 7 8 14 11 10 15 14 16 12 10 10 9 8 10 12 14 17 18 18 17 19 22 27 31 30 25 23 20 16 15 14 14 13 11 11 11 11 12 12 13 13 14 15
7 9 7 6 8 13 2 1 12 13 12 10 7 8 11 13 16 17 16 16 15 16 20 24 28 26 23 20 18 17 16 16 14 13 12 11 12 13 12 12 12 12 14 14
5 8 8 8 13 13 8 5 7 11 12 9 8 9 12 9 12 10 3 4 5 10 16 22 24 23 22 20 19 19 18 18 15 14 14 12 13 13 13 13 13 13 13 13
6 6 10 8 17 20 13 9 10 2 9 10 5 8 8 5 9 7 6 6 8 11 15 20 21 21 19 17 19 21 22 20 18 16 14 13 12 13 14 15 14 13 12 11
9 9 14 14 12 11 9 9 9 9 3 7 8 9 8 9 7 3 8 7 8 12 15 17 21 21 20 18 19 25 24 23 20 15 13 13 14 15 16 15 15 13 13 13
11 9 10 11 11 13 10 8 10 6 7 6 10 11 13 14 9 7 8 10 11 13 17 19 20 19 18 19 21 25 25 26 19 15 15 13 13 16 19 16 13 13 15 14
6 3 5 3 2 7 5 2 6 9 12 16 13 15 14 16 13 12 12 12 12 14 15 15 16 15 14 14 19 17 19 17 18 20 18 16 16 20 16 17 17 14 14 13
3 1 4 2 6 2 5 6 9 10 14 17 18 19 14 15 12 10 12 11 11 11 10 8 9 11 11 12 14 14 11 19 17 14 12 17 19 14 14 14 13 13 14 15
5 2 4 6 3 5 2 8 11 13 13 13 12 13 14 15 14 13 12 11 9 7 4 7 10 7 6 7 7 7 10 11 11 13 14 9 10 12 12 11 14 12 16 17
5 4 6 4 6 5 6 15 15 12 11 7 5 8 11 14 14 12 11 9 7 4 4 5 7 4 6 4 4 6 7 8 11 10 10 11 12 13 12 11 9 10 11 11
Wind_Direction
203 214 209 186 211 262 195 219 195 199 162 208 202 153 161 166 174 166 168 178 186 187 181 185 190 189 187 189 191 191 186 195 210 248 268 281 281 282 278 280 283 282 286 285
185 221 212 230 198 224 233 211 210 135 197 219 159 175 166 176 179 181 175 178 185 183 186 193 197 197 194 191 190 192 199 217 249 268 278 294 301 300 293 298 299 294 286 284
200 202 153 186 195 205 206 216 205 217 183 213 173 185 192 192 189 187 199 193 191 191 190 193 200 204 199 197 191 203 229 250 268 278 303 317 321 327 310 292 293 284 293 292
221 140 181 197 193 214 196 222 249 195 191 208 205 234 192 194 203 200 195 200 196 190 188 188 190 194 191 192 183 196 192 278 283 300 297 289 298 297 283 306 295 299 297 293
184 181 186 194 192 206 90 140 163 186 212 160 189 258 107 190 208 208 207 198 202 197 191 187 185 184 185 178 168 168 231 262 281 299 307 327 306 304 307 307 306 315 312 302
153 174 195 173 139 159 130 126 134 192 197 222 228 219 262 188 231 218 204 206 199 198 194 190 185 182 181 177 170 179 250 257 297 301 329 325 319 316 312 298 315 314 313 311
163 176 148 153 119 143 180 173 178 203 202 243 89 238 259 288 194 235 206 205 199 198 197 192 186 185 182 179 173 186 241 267 297 297 314 323 319 308 311 310 311 316 311 307
186 174 173 185 178 180 202 204 241 211 236 231 140 241 243 340 282 221 230 210 203 199 195 194 191 187 184 181 181 202 230 261 283 302 313 319 317 297 297 300 302 308 303 305
205 196 149 184 160 194 173 214 302 307 258 270 236 191 267 210 230 218 223 217 200 197 193 193 192 191 186 182 189 205 226 253 271 288 308 306 293 283 275 290 299 297 306 304
196 211 187 155 158 166 235 184 197 218 259 254 180 255 242 181 230 217 220 211 196 196 196 195 195 194 189 185 191 204 231 253 268 286 294 291 278 270 285 299 302 295 300 308
222 236 162 167 208 210 182 206 230 305 317 299 249 190 117 324 162 206 213 205 198 196 199 198 198 196 191 188 193 208 233 249 269 281 285 294 269 272 285 296 296 294 291 301
219 209 219 211 135 279 221 214 198 224 184 229 307 301 113 180 175 217 220 202 202 201 200 200 198 196 193 191 195 205 219 235 254 262 274 276 263 273 281 289 290 289 286 290
183 223 216 189 188 179 222 217 227 226 247 270 269 272 123 171 220 237 232 206 202 202 200 198 197 196 195 194 196 206 221 237 253 262 268 264 258 263 280 288 294 296 298 300
198 227 219 218 222 217 209 223 225 234 233 241 217 273 283 298 273 253 252 235 214 206 201 199 199 197 194 193 197 208 219 231 248 257 265 261 259 271 280 292 300 305 303 304
212 227 226 231 250 240 228 214 219 228 241 259 286 317 293 302 295 293 275 253 221 210 204 202 199 196 192 192 196 208 219 230 242 250 261 266 264 280 283 291 295 298 298 300
209 233 214 230 227 229 235 236 212 225 234 246 262 268 301 293 282 277 269 259 236 221 214 208 199 195 192 193 195 209 219 230 239 251 260 266 268 273 277 283 288 298 299 299
197 192 209 218 195 212 229 202 205 202 215 233 242 292 324 302 292 285 282 266 248 231 216 205 199 195 192 192 195 210 220 225 235 251 256 262 264 268 273 287 291 295 305 303
214 211 223 228 169 218 191 259 227 227 219 222 270 296 301 298 295 290 274 257 252 229 209 200 194 192 190 191 203 216 219 224 232 245 250 257 263 271 272 282 286 291 301 298
246 231 220 231 222 237 149 184 190 204 217 232 262 290 285 299 292 269 247 208 200 190 190 188 187 191 186 196 208 215 221 223 230 240 249 256 263 273 275 283 283 289 294 297
206 243 253 209 251 248 257 174 181 169 249 258 230 286 275 270 261 119 129 135 146 158 170 177 184 186 192 206 216 221 227 224 230 237 251 257 265 269 277 280 284 291 288 299
203 226 229 234 244 255 109 129 158 217 296 4 310 285 252 230 282 113 150 154 157 162 168 174 182 193 205 218 222 226 228 227 232 237 246 253 262 269 275 279 278 278 280 283
222 220 222 243 258 235 134 143 235 10 342 344 308 286 245 229 223 194 176 169 170 173 177 182 190 204 218 230 237 237 231 238 229 234 239 254 293 289 285 276 266 270 276 283
232 322 294 275 35 87 105 342 306 307 291 290 290 284 265 244 227 198 176 166 163 169 178 192 207 223 233 238 244 243 247 239 231 231 252 256 297 281 266 275 279 276 276 286
157 321 267 255 132 44 313 309 317 312 292 283 271 265 254 233 209 183 161 155 156 163 175 193 221 244 259 262 265 258 233 224 232 242 268 271 277 263 264 270 276 270 280 293
18 158 245 250 238 312 153 22 347 324 312 294 270 247 224 199 185 170 151 144 143 141 163 233 254 261 259 258 242 230 237 239 248 259 280 266 271 265 258 269 260 267 277 278
211 259 251 325 50 346 342 338 335 325 323 309 252 195 179 175 170 157 155 146 146 156 224 257 268 258 250 234 226 227 235 253 271 280 287 279 272 265 267 262 259 274 273 268